Time,TemperatureF,DewpointF,PressureIn,WindDirection,WindDirectionDegrees,WindSpeedMPH,WindSpeedGustMPH,Humidity,HourlyPrecipIn,Conditions,Clouds,dailyrainin,SoftwareType,DateUTC
2013-02-07 00:02:00,38.0,33.0,30.05,SE,135,4.0,6.0,80,-99.99,,,-99.99,,2013-02-07 06:02:00,
2013-02-07 00:11:00,39.0,33.0,30.05,SE,135,4.0,7.0,79,-99.99,,,-99.99,,2013-02-07 06:11:00,
2013-02-07 00:22:00,39.0,33.0,30.05,SSE,157,4.0,6.0,79,-99.99,,,-99.99,,2013-02-07 06:22:00,
2013-02-07 00:31:00,38.0,33.0,30.04,SSE,157,5.0,7.0,82,-99.99,,,-99.99,,2013-02-07 06:31:00,
2013-02-07 00:43:00,38.0,33.0,30.04,SSE,157,5.0,7.0,82,-99.99,,,-99.99,,2013-02-07 06:43:00,
2013-02-07 00:52:00,39.0,32.0,30.04,SSE,157,8.0,10.0,77,-99.99,,,-99.99,,2013-02-07 06:52:00,
2013-02-07 01:01:00,39.0,32.0,30.03,SSE,157,7.0,9.0,77,-99.99,,,-99.99,,2013-02-07 07:01:00,
2013-02-07 01:11:00,38.0,32.0,30.03,SSE,157,7.0,10.0,77,-99.99,,,-99.99,,2013-02-07 07:11:00,
2013-02-07 01:22:00,38.0,32.0,30.03,SSE,157,6.0,7.0,79,-99.99,,,-99.99,,2013-02-07 07:22:00,
2013-02-07 01:32:00,37.0,32.0,30.02,SSE,157,5.0,8.0,81,-99.99,,,-99.99,,2013-02-07 07:32:00,
2013-02-07 01:41:00,38.0,32.0,30.03,SE,135,5.0,8.0,81,-99.99,,,-99.99,,2013-02-07 07:41:00,
2013-02-07 01:52:00,38.0,33.0,30.03,SE,135,5.0,7.0,82,-99.99,,,-99.99,,2013-02-07 07:52:00,
2013-02-07 02:01:00,38.0,33.0,30.02,SE,135,6.0,8.0,82,-99.99,,,-99.99,,2013-02-07 08:01:00,
2013-02-07 02:11:00,38.0,33.0,30.02,SE,135,7.0,10.0,81,-99.99,,,-99.99,,2013-02-07 08:11:00,
2013-02-07 02:21:00,39.0,33.0,30.02,SE,135,7.0,9.0,79,-99.99,,,-99.99,,2013-02-07 08:21:00,
2013-02-07 02:32:00,39.0,33.0,30.02,SE,135,4.0,7.0,80,-99.99,,,-99.99,,2013-02-07 08:32:00,
2013-02-07 02:42:00,39.0,33.0,30.04,NNW,337,5.0,9.0,80,-99.99,,,-99.99,,2013-02-07 08:42:00,
2013-02-07 02:52:00,39.0,33.0,30.04,NNW,337,7.0,8.0,78,-99.99,,,-99.99,,2013-02-07 08:52:00,
2013-02-07 03:01:00,40.0,33.0,30.03,ENE,67,1.0,3.0,76,-99.99,,,-99.99,,2013-02-07 09:01:00,
2013-02-07 03:11:00,40.0,33.0,30.03,NNE,22,3.0,6.0,78,-99.99,,,-99.99,,2013-02-07 09:11:00,
2013-02-07 03:21:00,39.0,34.0,30.03,NNE,22,2.0,3.0,82,-99.99,,,-99.99,,2013-02-07 09:21:00,
2013-02-07 03:31:00,38.0,34.0,30.03,ENE,67,0.0,-999.0,83,-99.99,,,-99.99,,2013-02-07 09:31:00,
2013-02-07 03:41:00,39.0,33.0,30.02,ESE,112,2.0,4.0,81,-99.99,,,-99.99,,2013-02-07 09:41:00,
2013-02-07 03:51:00,38.0,34.0,30.01,ENE,67,3.0,4.0,87,-99.99,,,-99.99,,2013-02-07 09:51:00,
2013-02-07 04:01:00,38.0,34.0,30.00,ESE,112,4.0,6.0,88,-99.99,,,-99.99,,2013-02-07 10:01:00,
2013-02-07 04:11:00,38.0,34.0,30.00,ESE,112,5.0,7.0,86,-99.99,,,-99.99,,2013-02-07 10:11:00,
2013-02-07 04:22:00,38.0,34.0,30.00,ESE,112,6.0,8.0,84,-99.99,,,-99.99,,2013-02-07 10:22:00,
2013-02-07 04:32:00,38.0,34.0,29.99,ESE,112,5.0,8.0,83,-99.99,,,-99.99,,2013-02-07 10:32:00,
2013-02-07 04:41:00,39.0,34.0,30.00,SE,135,3.0,6.0,82,-99.99,,,-99.99,,2013-02-07 10:41:00,
2013-02-07 04:51:00,39.0,34.0,29.99,ESE,112,5.0,7.0,82,-99.99,,,-99.99,,2013-02-07 10:51:00,
2013-02-07 05:01:00,39.0,34.0,29.99,SE,135,4.0,7.0,83,-99.99,,,-99.99,,2013-02-07 11:01:00,
2013-02-07 05:11:00,39.0,34.0,29.99,SE,135,4.0,7.0,83,-99.99,,,-99.99,,2013-02-07 11:11:00,
2013-02-07 05:22:00,39.0,34.0,29.99,SE,135,4.0,7.0,83,-99.99,,,-99.99,,2013-02-07 11:22:00,
2013-02-07 05:32:00,39.0,34.0,29.99,ESE,112,4.0,6.0,83,-99.99,,,-99.99,,2013-02-07 11:32:00,
2013-02-07 05:44:00,39.0,35.0,29.99,ESE,112,3.0,5.0,84,-99.99,,,-99.99,,2013-02-07 11:44:00,
2013-02-07 05:52:00,39.0,35.0,29.99,North,0,1.0,3.0,86,-99.99,,,-99.99,,2013-02-07 11:52:00,
2013-02-07 06:02:00,39.0,35.0,29.99,North,0,3.0,4.0,87,-99.99,,,-99.99,,2013-02-07 12:02:00,
2013-02-07 06:11:00,38.0,35.0,29.99,ESE,112,2.0,4.0,87,-99.99,,,-99.99,,2013-02-07 12:11:00,
2013-02-07 06:22:00,39.0,35.0,29.98,ESE,112,2.0,3.0,87,-99.99,,,-99.99,,2013-02-07 12:22:00,
2013-02-07 06:32:00,38.0,35.0,29.98,ESE,112,3.0,4.0,88,-99.99,,,-99.99,,2013-02-07 12:32:00,
2013-02-07 06:42:00,38.0,35.0,29.98,ESE,112,2.0,4.0,87,-99.99,,,-99.99,,2013-02-07 12:42:00,
2013-02-07 06:52:00,39.0,35.0,29.98,ESE,112,1.0,2.0,88,-99.99,,,-99.99,,2013-02-07 12:52:00,
2013-02-07 07:02:00,39.0,35.0,29.98,SE,135,2.0,4.0,88,-99.99,,,-99.99,,2013-02-07 13:02:00,
2013-02-07 07:12:00,38.0,35.0,29.98,SE,135,3.0,5.0,88,-99.99,,,-99.99,,2013-02-07 13:12:00,
2013-02-07 07:22:00,38.0,35.0,29.98,SE,135,3.0,5.0,90,-99.99,,,-99.99,,2013-02-07 13:22:00,
2013-02-07 07:32:00,38.0,35.0,29.98,SE,135,3.0,4.0,90,-99.99,,,-99.99,,2013-02-07 13:32:00,
2013-02-07 07:42:00,38.0,36.0,29.98,SE,135,2.0,4.0,91,-99.99,,,-99.99,,2013-02-07 13:42:00,
2013-02-07 07:51:00,38.0,36.0,29.98,SSE,157,4.0,6.0,90,-99.99,,,-99.99,,2013-02-07 13:51:00,
2013-02-07 08:01:00,38.0,36.0,29.98,SSE,157,4.0,6.0,91,-99.99,,,-99.99,,2013-02-07 14:01:00,
2013-02-07 08:11:00,38.0,36.0,29.99,SSE,157,2.0,5.0,91,-99.99,,,-99.99,,2013-02-07 14:11:00,
2013-02-07 08:21:00,38.0,36.0,29.99,SE,135,1.0,3.0,92,-99.99,,,-99.99,,2013-02-07 14:21:00,
2013-02-07 08:32:00,38.0,36.0,29.98,North,0,2.0,3.0,93,-99.99,,,-99.99,,2013-02-07 14:32:00,
2013-02-07 08:41:00,38.0,37.0,29.98,ESE,112,3.0,4.0,93,-99.99,,,-99.99,,2013-02-07 14:41:00,
2013-02-07 08:52:00,38.0,37.0,29.98,ESE,112,3.0,4.0,93,-99.99,,,-99.99,,2013-02-07 14:52:00,
2013-02-07 09:01:00,39.0,37.0,29.98,ESE,112,4.0,5.0,95,-99.99,,,-99.99,,2013-02-07 15:01:00,
2013-02-07 09:11:00,39.0,37.0,29.98,ESE,112,4.0,6.0,94,-99.99,,,-99.99,,2013-02-07 15:11:00,
2013-02-07 09:22:00,39.0,37.0,29.98,ESE,112,3.0,5.0,95,-99.99,,,-99.99,,2013-02-07 15:22:00,
2013-02-07 09:32:00,39.0,37.0,29.97,ESE,112,4.0,6.0,93,-99.99,,,-99.99,,2013-02-07 15:32:00,
2013-02-07 09:42:00,39.0,37.0,29.97,ESE,112,3.0,5.0,93,-99.99,,,-99.99,,2013-02-07 15:42:00,
2013-02-07 09:52:00,39.0,38.0,29.97,SE,135,4.0,5.0,95,-99.99,,,-99.99,,2013-02-07 15:52:00,
2013-02-07 10:01:00,39.0,38.0,29.97,SE,135,4.0,6.0,96,-99.99,,,-99.99,,2013-02-07 16:01:00,
2013-02-07 10:11:00,39.0,38.0,29.96,SE,135,5.0,7.0,96,-99.99,,,-99.99,,2013-02-07 16:11:00,
2013-02-07 10:21:00,39.0,38.0,29.96,SE,135,4.0,7.0,97,-99.99,,,-99.99,,2013-02-07 16:21:00,
2013-02-07 10:32:00,39.0,39.0,29.96,SE,135,5.0,7.0,97,-99.99,,,-99.99,,2013-02-07 16:32:00,
2013-02-07 10:41:00,40.0,39.0,29.97,SSE,157,4.0,6.0,98,-99.99,,,-99.99,,2013-02-07 16:41:00,
2013-02-07 10:52:00,40.0,39.0,29.97,SE,135,4.0,7.0,98,-99.99,,,-99.99,,2013-02-07 16:52:00,
2013-02-07 11:01:00,40.0,40.0,29.97,SSE,157,4.0,6.0,98,-99.99,,,-99.99,,2013-02-07 17:01:00,
2013-02-07 11:11:00,40.0,40.0,29.97,SSE,157,5.0,7.0,98,-99.99,,,-99.99,,2013-02-07 17:11:00,
2013-02-07 11:21:00,41.0,40.0,29.96,SSE,157,5.0,6.0,99,-99.99,,,-99.99,,2013-02-07 17:21:00,
2013-02-07 11:31:00,41.0,40.0,29.96,SSE,157,3.0,4.0,99,-99.99,,,-99.99,,2013-02-07 17:31:00,
2013-02-07 11:42:00,41.0,41.0,29.97,SSW,202,2.0,3.0,99,-99.99,,,-99.99,,2013-02-07 17:42:00,
2013-02-07 11:52:00,41.0,41.0,29.96,SW,225,0.0,-999.0,99,-99.99,,,-99.99,,2013-02-07 17:52:00,
2013-02-07 12:01:00,41.0,41.0,29.96,South,180,2.0,3.0,99,-99.99,,,-99.99,,2013-02-07 18:01:00,
2013-02-07 12:11:00,42.0,41.0,29.95,SSW,202,2.0,3.0,99,-99.99,,,-99.99,,2013-02-07 18:11:00,
2013-02-07 12:23:00,42.0,42.0,29.95,SSW,202,4.0,6.0,99,-99.99,,,-99.99,,2013-02-07 18:23:00,
2013-02-07 12:31:00,42.0,42.0,29.95,South,180,4.0,6.0,100,-99.99,,,-99.99,,2013-02-07 18:31:00,
2013-02-07 12:41:00,42.0,42.0,29.94,South,180,5.0,7.0,100,-99.99,,,-99.99,,2013-02-07 18:41:00,
2013-02-07 12:52:00,43.0,42.0,29.94,SSW,202,5.0,7.0,100,-99.99,,,-99.99,,2013-02-07 18:52:00,
2013-02-07 13:01:00,43.0,43.0,29.93,SSW,202,4.0,6.0,100,-99.99,,,-99.99,,2013-02-07 19:01:00,
2013-02-07 13:11:00,43.0,43.0,29.93,SW,225,4.0,6.0,100,-99.99,,,-99.99,,2013-02-07 19:11:00,
2013-02-07 13:22:00,43.0,43.0,29.93,SSW,202,4.0,6.0,100,-99.99,,,-99.99,,2013-02-07 19:22:00,
2013-02-07 13:31:00,43.0,43.0,29.93,SSW,202,5.0,6.0,100,-99.99,,,-99.99,,2013-02-07 19:31:00,
2013-02-07 13:41:00,44.0,44.0,29.92,SW,225,3.0,5.0,100,-99.99,,,-99.99,,2013-02-07 19:41:00,
2013-02-07 13:51:00,44.0,44.0,29.92,SW,225,4.0,6.0,100,-99.99,,,-99.99,,2013-02-07 19:51:00,
2013-02-07 14:01:00,44.0,44.0,29.92,SW,225,4.0,6.0,100,-99.99,,,-99.99,,2013-02-07 20:01:00,
2013-02-07 14:11:00,44.0,44.0,29.92,SW,225,4.0,6.0,100,-99.99,,,-99.99,,2013-02-07 20:11:00,
2013-02-07 14:21:00,44.0,44.0,29.92,WSW,247,5.0,8.0,100,-99.99,,,-99.99,,2013-02-07 20:21:00,
2013-02-07 14:31:00,44.0,44.0,29.92,SW,225,5.0,7.0,100,-99.99,,,-99.99,,2013-02-07 20:31:00,
2013-02-07 14:41:00,44.0,44.0,29.92,SW,225,4.0,7.0,100,-99.99,,,-99.99,,2013-02-07 20:41:00,
2013-02-07 14:52:00,44.0,44.0,29.92,WSW,247,4.0,6.0,100,-99.99,,,-99.99,,2013-02-07 20:52:00,
2013-02-07 15:01:00,45.0,45.0,29.92,WSW,247,4.0,6.0,100,-99.99,,,-99.99,,2013-02-07 21:01:00,
2013-02-07 15:11:00,45.0,45.0,29.92,WSW,247,4.0,5.0,100,-99.99,,,-99.99,,2013-02-07 21:11:00,
2013-02-07 15:21:00,45.0,45.0,29.92,West,270,4.0,6.0,100,-99.99,,,-99.99,,2013-02-07 21:21:00,
2013-02-07 15:31:00,45.0,45.0,29.92,West,270,5.0,8.0,100,-99.99,,,-99.99,,2013-02-07 21:31:00,
2013-02-07 15:42:00,45.0,45.0,29.92,WNW,292,7.0,14.0,100,-99.99,,,-99.99,,2013-02-07 21:42:00,
2013-02-07 15:51:00,45.0,45.0,29.92,WNW,292,9.0,14.0,99,-99.99,,,-99.99,,2013-02-07 21:51:00,
2013-02-07 16:02:00,45.0,44.0,29.93,NW,315,11.0,16.0,97,-99.99,,,-99.99,,2013-02-07 22:02:00,
2013-02-07 16:11:00,44.0,43.0,29.94,NW,315,12.0,18.0,97,-99.99,,,-99.99,,2013-02-07 22:11:00,
2013-02-07 16:21:00,44.0,43.0,29.94,NW,315,12.0,18.0,97,-99.99,,,-99.99,,2013-02-07 22:21:00,
2013-02-07 16:31:00,43.0,43.0,29.94,NW,315,7.0,10.0,98,-99.99,,,-99.99,,2013-02-07 22:31:00,
2013-02-07 16:42:00,43.0,43.0,29.95,NW,315,8.0,11.0,98,-99.99,,,-99.99,,2013-02-07 22:42:00,
2013-02-07 16:51:00,43.0,42.0,29.94,NW,315,9.0,12.0,97,-99.99,,,-99.99,,2013-02-07 22:51:00,
2013-02-07 17:01:00,43.0,42.0,29.95,NW,315,9.0,12.0,97,-99.99,,,-99.99,,2013-02-07 23:01:00,
2013-02-07 17:11:00,43.0,42.0,29.95,NW,315,8.0,12.0,98,-99.99,,,-99.99,,2013-02-07 23:11:00,
2013-02-07 17:21:00,43.0,42.0,29.96,NW,315,8.0,12.0,98,-99.99,,,-99.99,,2013-02-07 23:21:00,
2013-02-07 17:32:00,43.0,42.0,29.97,NW,315,9.0,14.0,98,-99.99,,,-99.99,,2013-02-07 23:32:00,
2013-02-07 17:41:00,43.0,42.0,29.98,NW,315,11.0,16.0,97,-99.99,,,-99.99,,2013-02-07 23:41:00,
2013-02-07 17:52:00,43.0,42.0,29.99,NNW,337,12.0,17.0,97,-99.99,,,-99.99,,2013-02-07 23:52:00,
2013-02-07 18:01:00,42.0,42.0,29.99,NNW,337,10.0,13.0,97,-99.99,,,-99.99,,2013-02-08 00:01:00,
2013-02-07 18:11:00,42.0,42.0,30.00,NNW,337,12.0,16.0,98,-99.99,,,-99.99,,2013-02-08 00:11:00,
2013-02-07 18:21:00,42.0,41.0,30.00,NNW,337,12.0,18.0,98,-99.99,,,-99.99,,2013-02-08 00:21:00,
2013-02-07 18:31:00,42.0,41.0,30.01,NNW,337,15.0,20.0,97,-99.99,,,-99.99,,2013-02-08 00:31:00,
2013-02-07 18:41:00,41.0,41.0,30.01,NNW,337,15.0,22.0,97,-99.99,,,-99.99,,2013-02-08 00:41:00,
2013-02-07 18:52:00,41.0,40.0,30.02,NNW,337,13.0,20.0,97,-99.99,,,-99.99,,2013-02-08 00:52:00,
2013-02-07 19:01:00,41.0,40.0,30.03,NNW,337,16.0,21.0,97,-99.99,,,-99.99,,2013-02-08 01:01:00,
2013-02-07 19:11:00,40.0,39.0,30.04,NNW,337,15.0,21.0,98,-99.99,,,-99.99,,2013-02-08 01:11:00,
2013-02-07 19:21:00,39.0,39.0,30.04,NNW,337,15.0,21.0,99,-99.99,,,-99.99,,2013-02-08 01:21:00,
2013-02-07 19:31:00,39.0,38.0,30.05,NNW,337,14.0,21.0,98,-99.99,,,-99.99,,2013-02-08 01:31:00,
2013-02-07 19:41:00,38.0,38.0,30.06,NNW,337,18.0,23.0,98,-99.99,,,-99.99,,2013-02-08 01:41:00,
2013-02-07 19:51:00,38.0,37.0,30.06,NNW,337,14.0,22.0,98,-99.99,,,-99.99,,2013-02-08 01:51:00,
2013-02-07 20:01:00,38.0,37.0,30.07,NNW,337,10.0,15.0,98,-99.99,,,-99.99,,2013-02-08 02:01:00,
2013-02-07 20:11:00,38.0,37.0,30.07,NNW,337,9.0,12.0,98,-99.99,,,-99.99,,2013-02-08 02:11:00,
2013-02-07 20:21:00,38.0,37.0,30.07,NNW,337,12.0,21.0,98,-99.99,,,-99.99,,2013-02-08 02:21:00,
2013-02-07 20:31:00,37.0,36.0,30.08,NNW,337,12.0,20.0,98,-99.99,,,-99.99,,2013-02-08 02:31:00,
2013-02-07 20:42:00,37.0,36.0,30.08,NNW,337,14.0,20.0,99,-99.99,,,-99.99,,2013-02-08 02:42:00,
2013-02-07 20:52:00,36.0,36.0,30.09,NNW,337,13.0,20.0,99,-99.99,,,-99.99,,2013-02-08 02:52:00,
2013-02-07 21:01:00,36.0,35.0,30.09,NNW,337,18.0,23.0,98,-99.99,,,-99.99,,2013-02-08 03:01:00,
2013-02-07 21:12:00,35.0,35.0,30.10,NNW,337,13.0,19.0,98,-99.99,,,-99.99,,2013-02-08 03:12:00,
2013-02-07 21:22:00,35.0,35.0,30.10,NNW,337,13.0,22.0,99,-99.99,,,-99.99,,2013-02-08 03:22:00,
2013-02-07 21:32:00,35.0,35.0,30.11,NNW,337,13.0,18.0,98,-99.99,,,-99.99,,2013-02-08 03:32:00,
2013-02-07 21:41:00,35.0,34.0,30.11,NNW,337,11.0,16.0,98,-99.99,,,-99.99,,2013-02-08 03:41:00,
2013-02-07 21:51:00,35.0,34.0,30.11,NW,315,10.0,16.0,98,-99.99,,,-99.99,,2013-02-08 03:51:00,
2013-02-07 22:01:00,35.0,34.0,30.11,NNW,337,10.0,14.0,98,-99.99,,,-99.99,,2013-02-08 04:01:00,
2013-02-07 22:11:00,35.0,34.0,30.12,NW,315,11.0,14.0,99,-99.99,,,-99.99,,2013-02-08 04:11:00,
2013-02-07 22:21:00,34.0,34.0,30.12,NNW,337,11.0,15.0,99,-99.99,,,-99.99,,2013-02-08 04:21:00,
2013-02-07 22:32:00,34.0,34.0,30.12,NNW,337,10.0,16.0,100,-99.99,,,-99.99,,2013-02-08 04:32:00,
2013-02-07 22:41:00,34.0,34.0,30.12,NW,315,10.0,13.0,100,-99.99,,,-99.99,,2013-02-08 04:41:00,
2013-02-07 22:51:00,34.0,34.0,30.12,NNW,337,12.0,18.0,100,-99.99,,,-99.99,,2013-02-08 04:51:00,
2013-02-07 23:02:00,34.0,34.0,30.13,NNW,337,12.0,16.0,99,-99.99,,,-99.99,,2013-02-08 05:02:00,
2013-02-07 23:11:00,34.0,34.0,30.13,NNW,337,12.0,20.0,98,-99.99,,,-99.99,,2013-02-08 05:11:00,
2013-02-07 23:22:00,34.0,33.0,30.13,NNW,337,11.0,16.0,98,-99.99,,,-99.99,,2013-02-08 05:22:00,
2013-02-07 23:31:00,34.0,33.0,30.13,NNW,337,12.0,20.0,98,-99.99,,,-99.99,,2013-02-08 05:31:00,
2013-02-07 23:41:00,34.0,33.0,30.13,NNW,337,13.0,17.0,97,-99.99,,,-99.99,,2013-02-08 05:41:00,
2013-02-07 23:52:00,34.0,33.0,30.14,NNW,337,12.0,17.0,97,-99.99,,,-99.99,,2013-02-08 05:52:00,